Weather History for HEAX - March, 2013

Change the Weather History Date:

Monday, March 11, 2013

  Actual Average Record
Temperature  
Mean Temperature 72 °F -  
Max Temperature 90 °F 69 °F 90 °F (2013)
Min Temperature 54 °F 53 °F 41 °F (2006)
Cooling Degree Days 7    
Growing Degree Days 22 (Base 50)    
Moisture  
Dew Point 51 °F    
Average Humidity 55    
Maximum Humidity 88    
Minimum Humidity 13    
Precipitation  
Precipitation 0.00 in 0.01 in - ()
Sea Level Pressure  
Sea Level Pressure 29.91 in    
Wind  
Wind Speed 4 mph ()    
Max Wind Speed 16 mph    
Max Gust Speed -    
Visibility 4.7 miles    
Events      
Averages and records for this station are not official NWS values.
T = Trace of Precipitation, MM = Missing Value Source: Averaged Metar Reports

Daily Weather History Graph

Daily Weather History Graph

Search for Another Location

Airport or City:

Trip Planner

Search our weather history database for the weather conditions in past years. The results will help you decide how hot, cold, wet, or windy it might be!

Date:

Astronomy

Mar. 11, 2013 Rise Set
Actual Time 6:15 AM EET 6:05 PM EET
Civil Twilight 5:51 AM EET 6:29 PM EET
Nautical Twilight 5:23 AM EET 6:57 PM EET
Astronomical Twilight 4:54 AM EET 7:26 PM EET
Moon 5:38 AM EET (3/11) 5:54 PM EET (3/11)
Length of Visible Light 12h 38m
Length of Day
11h 50m
Waning Crescent, 0% of the Moon is Illuminated
Mar 11
Waning Crescent
Mar 11
New
Mar 19
First Quarter
Mar 27
Full
Apr 3
Last Quarter

Hourly Weather History & Observations

Time (EET) Temp. Heat Index Dew Point Humidity Pressure Visibility Wind Dir Wind Speed Gust Speed Precip Events Conditions
12:00 AM 59.0 °F - 55.4 °F 88% 30.01 in - South 2.3 mph - N/A   Clear
1:00 AM 59.0 °F - 53.6 °F 82% 30.01 in - Calm Calm - N/A   Clear
2:00 AM 58 °F - 53 °F 77% 29.98 in 6 mi Calm Calm - -  
2:00 AM 57.2 °F - 53.6 °F 88% 29.98 in - Calm Calm - N/A   Clear
3:00 AM 57.2 °F - 53.6 °F 88% 29.95 in - South 2.3 mph - N/A   Clear
4:00 AM 57.2 °F - 51.8 °F 82% 29.95 in - Calm Calm - N/A   Clear
5:00 AM 57.2 °F - 51.8 °F 82% 29.92 in - Calm Calm - N/A   Clear
6:00 AM 57.2 °F - 51.8 °F 82% 29.92 in - Calm Calm - N/A   Clear
7:00 AM 55.4 °F - 51.8 °F 88% 29.95 in - Calm Calm - N/A   Clear
8:00 AM 60 °F - 50 °F 61% 29.94 in 6 mi South 3.5 mph - -  
8:00 AM 60.8 °F - 50.0 °F 68% 29.95 in - South 3.5 mph - N/A   Clear
9:00 AM 68.0 °F - 51.8 °F 56% 29.95 in - SSW 4.6 mph - N/A   Clear
10:00 AM 77.0 °F - 48.2 °F 36% 29.95 in - SW 10.4 mph - N/A   Clear
11:00 AM 68.0 °F - 51.8 °F 56% 29.95 in - SSW 4.6 mph - N/A   Clear
12:00 PM 86.0 °F - 46.4 °F 25% 29.89 in - SW 16.1 mph - N/A   Clear
1:00 PM 87.8 °F - 46.4 °F 24% 29.89 in - SW 16.1 mph - N/A   Clear
2:00 PM 88 °F - 45 °F 13% 29.89 in 4 mi West 15.0 mph - -   Blowing Sand
2:00 PM 87.8 °F - 44.6 °F 22% 29.89 in 3.7 mi West 15.0 mph - N/A   Unknown
3:00 PM 87.8 °F - 46.4 °F 24% 29.86 in 3.7 mi West 13.8 mph - N/A   Unknown
4:00 PM 89.6 °F - 46.4 °F 22% 29.86 in 3.7 mi SW 12.7 mph - N/A   Unknown
5:00 PM 87.8 °F - 51.8 °F 29% 29.83 in - South 9.2 mph - N/A   Clear
6:00 PM 84.2 °F 83.0 °F 55.4 °F 37% 29.83 in - South 5.8 mph - N/A   Clear
7:00 PM 77.0 °F - 57.2 °F 50% 29.86 in - South 3.5 mph - N/A   Clear
8:00 PM 73 °F - 54 °F 42% 29.87 in 6 mi Calm Calm - -  
8:00 PM 73.4 °F - 53.6 °F 50% 29.86 in - Calm Calm - N/A   Clear
9:00 PM 73.4 °F - 57.2 °F 57% 29.86 in - Calm Calm - N/A   Clear
10:00 PM 69.8 °F - 57.2 °F 64% 29.89 in - South 3.5 mph - N/A   Clear
11:00 PM 68.0 °F - 51.8 °F 56% 29.89 in - South 3.5 mph - N/A   Clear